Home   Weather   Plymouth   Past weeks
Flag for United Kingdom

Past Weather in Plymouth, England, United Kingdom — Yesterday and Last 2 Weeks

Now
63 °F

Mild.


Feels Like: 63 °F
Forecast: 66 / 51 °F
Wind: 9 mph from West

Location: Plymouth

Current Time: May 24, 2019 at 2:06:23 pm

Latest Report: May 24, 2019 at 1:00 pm


Visibility: 8 mi

Pressure: 30.13 "Hg

Humidity: 76%

Dew Point: 55 °F

Location of PlymouthLocation

Past Weather in Plymouth — Graph

°F

Plymouth Temperature Yesterday

Maximum temperature yesterday: 63 °F (at 1:00 pm)
Minimum temperature yesterday: 45 °F (at 6:00 am)
Average temperature yesterday: 54 °F

High & Low Weather Summary for the Past Weeks

 TemperatureHumidityPressure
High66 °F (May 19, 1:00 pm)94% (May 10, 5:00 am)30.67 "Hg (May 10, 5:00 am)
Low40 °F (May 10, 5:00 am)32% (May 13, 7:00 pm)29.59 "Hg (May 9, 1:00 pm)
Average54 °F72%30.05 "Hg
* Reported May 9 1:00 pm — May 24 1:00 pm, Plymouth. Weather by CustomWeather, © 2019

Note: Actual official high and low records may vary slightly from our data, if they occured in-between our weather recording intervals... More about our weather records

Advertising

Plymouth Weather History for the Previous 24 Hours

Scroll right to see more
 ConditionsComfort  
Time TempWeatherWind HumidityBarometerVisibility
1:00 pm
Fri, May 24
63 °FMild.9 mph76%30.13 "Hg8 mi
12:00 pm63 °FMild.9 mph74%30.13 "Hg22 mi
11:00 am62 °FCool.8 mph75%30.13 "Hg11 mi
10:00 am59 °FCool.8 mph82%30.13 "Hg16 mi
8:00 am54 °FCool.3 mph92%30.11 "Hg9 mi
7:00 am52 °FCool.3 mph94%30.11 "Hg11 mi
6:00 am50 °FCool.2 mph94%30.10 "Hg9 mi
5:00 am50 °FCool.5 mph91%30.10 "Hg9 mi
4:00 am50 °FCool.5 mph92%30.09 "Hg10 mi
3:00 am49 °FCool.5 mph90%30.09 "Hg19 mi
2:00 am50 °FCool.5 mph90%30.09 "Hg17 mi
1:00 am50 °FCool.6 mph88%30.09 "Hg13 mi
12:00 am52 °FCool.8 mph84%30.09 "Hg11 mi
11:00 pm
Thu, May 23
53 °FCool.7 mph81%30.09 "Hg11 mi
10:00 pm53 °FCool.6 mph74%30.09 "Hg22 mi
9:00 pm55 °FCool.9 mph71%30.07 "Hg16 mi
8:00 pm57 °FCool.12 mph67%30.06 "Hg22 mi
7:00 pm58 °FCool.13 mph63%30.05 "Hg31 mi
6:00 pm61 °FRefreshingly cool.13 mph54%30.04 "Hg19 mi
5:00 pm63 °FMild.10 mph66%30.03 "Hg28 mi
4:00 pm62 °FCool.14 mph69%30.03 "Hg9 mi
3:00 pm60 °FCool.13 mph75%30.04 "Hg12 mi
2:00 pm61 °FCool.12 mph77%30.04 "Hg11 mi
Weather by CustomWeather, © 2019

See weather overview